| time (UTC) | temp F | wind direction | speed knots | gust knots | rain 1hr in | rain 24hr in | rain mn in | humidity % | barometer mb |
| 20260506002508 | 45 | 200 | 2.6 | 6.1 | 0.00 | 0.00 | 0.00 | 33 | 976.5 |
| 20260506002007 | 44 | 209 | 1.7 | 5.2 | 0.00 | 0.00 | 0.00 | 34 | 977.2 |
| 20260506001507 | 43 | 166 | 5.2 | 12.2 | 0.00 | 0.00 | 0.00 | 29 | 976.2 |
| 20260506001006 | 43 | 188 | 7.8 | 20.0 | 0.00 | 0.00 | 0.00 | 27 | 976.1 |
| 20260506000506 | 44 | 180 | 7.8 | 11.3 | 0.00 | 0.00 | 0.00 | 26 | 975.9 |
| 20260506000005 | 46 | 117 | 2.6 | 6.1 | 0.00 | 0.00 | 0.00 | 29 | 976.8 |
| 20260505235505 | 46 | 174 | 3.5 | 8.7 | 0.00 | 0.00 | 0.00 | 31 | 976.3 |
| 20260505235004 | 44 | 176 | 5.2 | 11.3 | 0.00 | 0.00 | 0.00 | 31 | 975.4 |
| 20260505234504 | 44 | 174 | 6.1 | 11.3 | 0.00 | 0.00 | 0.00 | 33 | 976.0 |
| 20260505233503 | 43 | 179 | 10.4 | 13.0 | 0.00 | 0.00 | 0.00 | 32 | 978.1 |
| 20260505233008 | 44 | 200 | 1.7 | 8.7 | 0.00 | 0.00 | 0.00 | 39 | 977.1 |
| 20260505232508 | 42 | 177 | 11.3 | 17.4 | 0.00 | 0.00 | 0.00 | 33 | 975.8 |
| 20260505232007 | 44 | 180 | 6.1 | 9.6 | 0.00 | 0.00 | 0.00 | 32 | 977.2 |
| 20260505231519 | 44 | 114 | 7.0 | 10.4 | 0.00 | 0.00 | 0.00 | 34 | 977.4 |
| 20260505231006 | 44 | 152 | 11.3 | 16.5 | 0.00 | 0.00 | 0.00 | 30 | 976.8 |
| 20260505230505 | 45 | 138 | 4.3 | 8.7 | 0.00 | 0.00 | 0.00 | 34 | 977.4 |
| 20260505230005 | 44 | 93 | 4.3 | 9.6 | 0.00 | 0.00 | 0.00 | 36 | 977.7 |
| 20260505225504 | 45 | 278 | 1.7 | 1.7 | 0.00 | 0.00 | 0.00 | 32 | 977.0 |
| 20260505225004 | 45 | 278 | 1.7 | 1.7 | 0.00 | 0.00 | 0.00 | 32 | 977.0 |
| 20260505224503 | 45 | 172 | 7.0 | 7.0 | 0.00 | 0.00 | 0.00 | 34 | 977.3 |
| 20260505224009 | 45 | 164 | 7.0 | 7.0 | 0.00 | 0.00 | 0.00 | 32 | 977.4 |
| 20260505223508 | 46 | 102 | 5.2 | 6.1 | 0.00 | 0.00 | 0.00 | 29 | 977.0 |
| 20260505223008 | 46 | 93 | 2.6 | 5.2 | 0.00 | 0.00 | 0.00 | 35 | 976.9 |
| 20260505222507 | 45 | 75 | 1.7 | 1.7 | 0.00 | 0.00 | 0.00 | 32 | 976.5 |
| 20260505222006 | 45 | 29 | 3.5 | 3.5 | 0.00 | 0.00 | 0.00 | 32 | 976.6 |
| 20260505221506 | 45 | 29 | 3.5 | 4.3 | 0.00 | 0.00 | 0.00 | 32 | 976.6 |
| 20260505221005 | 46 | 16 | 3.5 | 3.5 | 0.00 | 0.00 | 0.00 | 32 | 976.8 |
| 20260505215506 | 46 | 151 | 6.1 | 10.4 | 0.00 | 0.00 | 0.00 | 32 | 977.0 |
| 20260505215006 | 45 | 161 | 6.1 | 13.0 | 0.00 | 0.00 | 0.00 | 33 | 977.1 |
| 20260505214505 | 45 | 158 | 8.7 | 13.9 | 0.00 | 0.00 | 0.00 | 31 | 977.8 |
| 20260505214004 | 46 | 69 | 5.2 | 8.7 | 0.00 | 0.00 | 0.00 | 32 | 976.8 |
| 20260505213504 | 46 | 148 | 6.1 | 10.4 | 0.00 | 0.00 | 0.00 | 36 | 976.1 |
| 20260505213003 | 45 | 107 | 5.2 | 8.7 | 0.00 | 0.00 | 0.00 | 36 | 975.9 |
| 20260505212509 | 44 | 109 | 8.7 | 16.5 | 0.00 | 0.00 | 0.00 | 33 | 976.0 |
| 20260505212008 | 43 | 66 | 6.1 | 7.8 | 0.00 | 0.00 | 0.00 | 36 | 976.5 |
| 20260505211007 | 43 | 78 | 7.0 | 13.0 | 0.00 | 0.00 | 0.00 | 38 | 977.0 |
| 20260505210505 | 42 | 51 | 5.2 | 7.8 | 0.00 | 0.00 | 0.00 | 39 | 977.1 |
| 20260505210005 | 40 | 162 | 14.8 | 20.0 | 0.00 | 0.00 | 0.00 | 37 | 976.8 |
| 20260505205510 | 39 | 170 | 15.6 | 22.6 | 0.00 | 0.00 | 0.00 | 39 | 977.6 |
| 20260505204503 | 42 | 99 | 7.0 | 13.9 | 0.00 | 0.00 | 0.00 | 48 | 976.4 |
| 20260505204003 | 40 | 162 | 15.6 | 21.7 | 0.00 | 0.00 | 0.00 | 44 | 975.9 |
| 20260505203502 | 40 | 127 | 13.9 | 20.9 | 0.00 | 0.00 | 0.00 | 45 | 977.0 |
| 20260505203008 | 39 | 173 | 9.6 | 20.0 | 0.00 | 0.00 | 0.00 | 45 | 977.1 |
| 20260505202507 | 39 | 166 | 13.0 | 18.2 | 0.00 | 0.00 | 0.00 | 43 | 977.4 |
| 20260505202006 | 40 | 158 | 11.3 | 15.6 | 0.00 | 0.00 | 0.00 | 44 | 977.4 |
| 20260505201006 | 41 | 353 | 4.3 | 9.6 | 0.00 | 0.00 | 0.00 | 47 | 977.4 |
| 20260505200505 | 42 | 138 | 7.0 | 14.8 | 0.00 | 0.00 | 0.00 | 46 | 977.6 |
| 20260505200004 | 40 | 162 | 7.8 | 19.1 | 0.00 | 0.00 | 0.00 | 43 | 977.2 |
| 20260505195510 | 42 | 44 | 7.8 | 10.4 | 0.00 | 0.00 | 0.00 | 41 | 977.3 |
| 20260505195006 | 42 | 28 | 7.8 | 9.6 | 0.00 | 0.00 | 0.00 | 43 | 976.6 |
| 20260505194005 | 42 | 87 | 5.2 | 8.7 | 0.00 | 0.00 | 0.00 | 46 | 976.6 |
| 20260505193504 | 42 | 143 | 5.2 | 8.7 | 0.00 | 0.00 | 0.00 | 47 | 976.2 |
| 20260505193004 | 42 | 55 | 5.2 | 11.3 | 0.00 | 0.00 | 0.00 | 50 | 976.7 |
| 20260505192503 | 42 | 63 | 7.0 | 14.8 | 0.00 | 0.00 | 0.00 | 50 | 976.4 |
| 20260505192003 | 40 | 2 | 7.8 | 23.5 | 0.00 | 0.00 | 0.00 | 41 | 976.6 |
| 20260505191508 | 41 | 90 | 15.6 | 26.9 | 0.00 | 0.00 | 0.00 | 43 | 977.1 |
| 20260505191007 | 42 | 179 | 3.5 | 7.8 | 0.00 | 0.00 | 0.00 | 49 | 977.1 |
| 20260505190006 | 43 | 13 | 4.3 | 7.0 | 0.00 | 0.00 | 0.00 | 49 | 977.1 |
| 20260505185506 | 43 | 23 | 8.7 | 11.3 | 0.00 | 0.00 | 0.00 | 43 | 977.0 |
| 20260505185005 | 42 | 9 | 7.0 | 9.6 | 0.00 | 0.00 | 0.00 | 44 | 977.1 |
| 20260505184504 | 42 | 20 | 4.3 | 7.0 | 0.00 | 0.00 | 0.00 | 50 | 976.7 |
| 20260505184004 | 41 | 9 | 10.4 | 10.4 | 0.00 | 0.00 | 0.00 | 48 | 976.8 |
| 20260505183509 | 41 | 9 | 10.4 | 10.4 | 0.00 | 0.00 | 0.00 | 48 | 976.8 |
| 20260505183008 | 41 | 9 | 8.7 | 10.4 | 0.00 | 0.00 | 0.00 | 48 | 976.8 |
| 20260505182006 | 41 | 352 | 13.9 | 13.9 | 0.00 | 0.00 | 0.00 | 45 | 978.1 |
| 20260505181506 | 41 | 88 | 6.1 | 9.6 | 0.00 | 0.00 | 0.00 | 49 | 977.9 |
| 20260505180505 | 41 | 354 | 7.8 | 7.8 | 0.00 | 0.00 | 0.00 | 46 | 976.9 |
| 20260505180004 | 41 | 4 | 7.8 | 9.6 | 0.00 | 0.00 | 0.00 | 46 | 978.5 |
| 20260505175503 | 41 | 7 | 11.3 | 11.3 | 0.00 | 0.00 | 0.00 | 47 | 976.8 |
| 20260505175003 | 40 | 168 | 7.0 | 13.0 | 0.00 | 0.00 | 0.00 | 47 | 977.1 |
| 20260505174508 | 41 | 358 | 7.8 | 12.2 | 0.00 | 0.00 | 0.00 | 44 | 977.5 |
| 20260505174008 | 41 | 94 | 9.6 | 13.0 | 0.00 | 0.00 | 0.00 | 43 | 976.3 |
| 20260505173007 | 41 | 4 | 7.8 | 8.7 | 0.00 | 0.00 | 0.00 | 44 | 976.5 |
| 20260505172506 | 42 | 9 | 9.6 | 12.2 | 0.00 | 0.00 | 0.00 | 44 | 977.0 |
| 20260505172006 | 41 | 8 | 7.8 | 11.3 | 0.00 | 0.00 | 0.00 | 45 | 976.6 |
| 20260505171505 | 42 | 8 | 10.4 | 13.0 | 0.00 | 0.00 | 0.00 | 43 | 976.7 |
| 20260505171004 | 41 | 358 | 10.4 | 13.0 | 0.00 | 0.00 | 0.00 | 44 | 976.3 |
| 20260505170504 | 41 | 332 | 6.1 | 10.4 | 0.00 | 0.00 | 0.00 | 46 | 976.4 |
| 20260505170003 | 40 | 336 | 8.7 | 12.2 | 0.00 | 0.00 | 0.00 | 43 | 976.9 |
| 20260505165508 | 40 | 331 | 6.1 | 12.2 | 0.00 | 0.00 | 0.00 | 49 | 977.0 |
| 20260505165008 | 40 | 332 | 6.1 | 13.0 | 0.00 | 0.00 | 0.00 | 48 | 978.3 |
| 20260505164507 | 41 | 344 | 10.4 | 13.0 | 0.00 | 0.00 | 0.00 | 43 | 977.3 |
| 20260505163506 | 40 | 345 | 8.7 | 13.0 | 0.00 | 0.00 | 0.00 | 46 | 977.1 |
| 20260505163007 | 40 | 337 | 8.7 | 12.2 | 0.00 | 0.00 | 0.00 | 44 | 977.4 |
| 20260505162004 | 40 | 287 | 7.8 | 11.3 | 0.00 | 0.00 | 0.00 | 45 | 977.2 |
| 20260505161504 | 41 | 347 | 10.4 | 13.9 | 0.00 | 0.00 | 0.00 | 42 | 976.9 |
| 20260505161003 | 40 | 225 | 6.1 | 10.4 | 0.00 | 0.00 | 0.00 | 50 | 977.2 |
| 20260505153006 | 40 | 340 | 10.4 | 11.3 | 0.00 | 0.00 | 0.00 | 44 | 976.9 |
| 20260505152505 | 40 | 281 | 10.4 | 13.0 | 0.00 | 0.00 | 0.00 | 45 | 976.1 |
| 20260505152004 | 40 | 337 | 8.7 | 11.3 | 0.00 | 0.00 | 0.00 | 46 | 976.5 |
| 20260505151503 | 39 | 340 | 7.0 | 11.3 | 0.00 | 0.00 | 0.00 | 47 | 976.3 |
| 20260505150509 | 38 | 185 | 2.6 | 6.1 | 0.00 | 0.00 | 0.00 | 52 | 976.9 |
| 20260505140504 | 38 | 214 | 8.7 | 8.7 | 0.00 | 0.00 | 0.00 | 49 | 975.9 |
| 20260505125007 | 39 | 344 | 12.2 | 15.6 | 0.00 | 0.00 | 0.00 | 44 | 975.2 |
| 20260505124506 | 39 | 346 | 9.6 | 13.0 | 0.00 | 0.00 | 0.00 | 46 | 975.4 |
| 20260505124006 | 39 | 336 | 12.2 | 13.9 | 0.00 | 0.00 | 0.00 | 45 | 975.5 |
| 20260505123505 | 40 | 345 | 13.9 | 15.6 | 0.00 | 0.00 | 0.00 | 43 | 975.5 |
| 20260505123005 | 39 | 277 | 8.7 | 13.9 | 0.00 | 0.00 | 0.00 | 47 | 975.3 |
| 20260505122504 | 39 | 351 | 7.8 | 12.2 | 0.00 | 0.00 | 0.00 | 46 | 975.0 |
| 20260505122004 | 40 | 332 | 11.3 | 13.9 | 0.00 | 0.00 | 0.00 | 45 | 975.3 |
| 20260505121503 | 40 | 319 | 10.4 | 12.2 | 0.00 | 0.00 | 0.00 | 45 | 975.6 |
| 20260505121002 | 40 | 327 | 13.9 | 15.6 | 0.00 | 0.00 | 0.00 | 43 | 975.0 |
| 20260505120508 | 40 | 333 | 12.2 | 13.9 | 0.00 | 0.00 | 0.00 | 44 | 974.4 |
| 20260505115507 | 39 | 322 | 5.2 | 9.6 | 0.00 | 0.00 | 0.00 | 48 | 975.2 |
| 20260505115006 | 40 | 310 | 10.4 | 13.9 | 0.00 | 0.00 | 0.00 | 45 | 974.4 |
| 20260505114506 | 40 | 339 | 13.0 | 16.5 | 0.00 | 0.00 | 0.00 | 43 | 975.6 |
| 20260505113505 | 40 | 332 | 12.2 | 13.9 | 0.00 | 0.00 | 0.00 | 44 | 975.6 |
| 20260505113004 | 40 | 328 | 13.0 | 16.5 | 0.00 | 0.00 | 0.00 | 44 | 975.6 |
| 20260505112503 | 41 | 340 | 12.2 | 14.8 | 0.00 | 0.00 | 0.00 | 45 | 975.5 |
| 20260505112003 | 41 | 322 | 14.8 | 17.4 | 0.00 | 0.00 | 0.00 | 45 | 975.6 |
| 20260505111508 | 41 | 315 | 15.6 | 19.1 | 0.00 | 0.00 | 0.00 | 44 | 976.1 |
| 20260505111008 | 41 | 331 | 13.9 | 16.5 | 0.00 | 0.00 | 0.00 | 44 | 975.1 |
| 20260505110506 | 40 | 310 | 15.6 | 17.4 | 0.00 | 0.00 | 0.00 | 44 | 975.1 |
| 20260505102007 | 40 | 322 | 14.8 | 18.2 | 0.00 | 0.00 | 0.00 | 46 | 976.9 |
| 20260505101506 | 40 | 333 | 14.8 | 18.2 | 0.00 | 0.00 | 0.00 | 44 | 976.5 |
| 20260505101006 | 39 | 290 | 12.2 | 17.4 | 0.00 | 0.00 | 0.00 | 46 | 976.4 |
| 20260505100005 | 40 | 325 | 13.0 | 19.1 | 0.00 | 0.00 | 0.00 | 45 | 976.0 |
| 20260505095504 | 40 | 338 | 12.2 | 16.5 | 0.00 | 0.00 | 0.00 | 45 | 975.3 |
| 20260505095004 | 40 | 304 | 13.9 | 18.2 | 0.00 | 0.00 | 0.00 | 45 | 976.0 |
| 20260505094503 | 39 | 290 | 11.3 | 19.1 | 0.00 | 0.00 | 0.00 | 46 | 975.5 |
| 20260505094003 | 39 | 339 | 11.3 | 17.4 | 0.00 | 0.00 | 0.00 | 47 | 976.6 |
| 20260505093002 | 39 | 301 | 13.9 | 16.5 | 0.00 | 0.00 | 0.00 | 45 | 976.7 |
| 20260505092508 | 39 | 293 | 15.6 | 20.9 | 0.00 | 0.00 | 0.00 | 45 | 976.3 |
| 20260505092007 | 39 | 301 | 14.8 | 17.4 | 0.00 | 0.00 | 0.00 | 45 | 976.0 |
| 20260505091507 | 39 | 328 | 16.5 | 20.0 | 0.00 | 0.00 | 0.00 | 45 | 976.7 |
| 20260505091006 | 39 | 305 | 16.5 | 20.9 | 0.00 | 0.00 | 0.00 | 44 | 976.8 |
| 20260505090505 | 39 | 324 | 10.4 | 15.6 | 0.00 | 0.00 | 0.00 | 46 | 977.5 |
| 20260505090005 | 39 | 299 | 14.8 | 20.0 | 0.00 | 0.00 | 0.00 | 45 | 977.3 |
| 20260505085004 | 38 | 325 | 7.8 | 7.8 | 0.00 | 0.00 | 0.00 | 46 | 978.2 |
| 20260505084503 | 38 | 300 | 9.6 | 12.2 | 0.00 | 0.00 | 0.00 | 46 | 978.2 |
| 20260505084009 | 38 | 282 | 9.6 | 9.6 | 0.00 | 0.00 | 0.00 | 47 | 978.7 |
| 20260505083508 | 38 | 330 | 8.7 | 14.8 | 0.00 | 0.00 | 0.00 | 46 | 978.7 |
| 20260505082507 | 38 | 287 | 9.6 | 10.4 | 0.00 | 0.00 | 0.00 | 47 | 978.4 |
| 20260505082007 | 38 | 322 | 10.4 | 12.2 | 0.00 | 0.00 | 0.00 | 46 | 978.9 |
| 20260505081506 | 38 | 295 | 9.6 | 14.8 | 0.00 | 0.00 | 0.00 | 47 | 978.8 |
| 20260505081006 | 37 | 290 | 14.8 | 14.8 | 0.00 | 0.00 | 0.00 | 46 | 979.8 |
| 20260505080505 | 38 | 349 | 15.6 | 15.6 | 0.00 | 0.00 | 0.00 | 44 | 980.0 |
| 20260505080004 | 38 | 340 | 7.0 | 7.0 | 0.00 | 0.00 | 0.00 | 45 | 979.3 |
| 20260505075504 | 38 | 287 | 11.3 | 11.3 | 0.00 | 0.00 | 0.00 | 46 | 979.8 |
| 20260505075003 | 38 | 287 | 11.3 | 11.3 | 0.00 | 0.00 | 0.00 | 46 | 979.8 |
| 20260505074509 | 38 | 287 | 11.3 | 11.3 | 0.00 | 0.00 | 0.00 | 46 | 979.8 |
| 20260505074009 | 38 | 316 | 9.6 | 12.2 | 0.00 | 0.00 | 0.00 | 46 | 980.0 |
| 20260505073508 | 38 | 279 | 8.7 | 12.2 | 0.00 | 0.00 | 0.00 | 46 | 980.4 |
| 20260505073007 | 38 | 317 | 12.2 | 15.6 | 0.00 | 0.00 | 0.00 | 44 | 979.7 |
| 20260505072007 | 39 | 348 | 9.6 | 16.5 | 0.00 | 0.00 | 0.00 | 45 | 978.9 |
| 20260505071506 | 38 | 307 | 7.8 | 11.3 | 0.00 | 0.00 | 0.00 | 46 | 979.4 |
| 20260505071005 | 38 | 303 | 11.3 | 16.5 | 0.00 | 0.00 | 0.00 | 45 | 979.6 |
| 20260505070505 | 38 | 348 | 7.8 | 10.4 | 0.00 | 0.00 | 0.00 | 46 | 979.3 |
| 20260505070004 | 38 | 314 | 11.3 | 13.9 | 0.00 | 0.00 | 0.00 | 45 | 979.8 |
| 20260505065510 | 39 | 328 | 8.7 | 13.9 | 0.00 | 0.00 | 0.00 | 46 | 980.0 |
| 20260505064508 | 40 | 336 | 11.3 | 13.0 | 0.00 | 0.00 | 0.00 | 46 | 979.6 |
| 20260505064007 | 39 | 327 | 11.3 | 14.8 | 0.00 | 0.00 | 0.00 | 45 | 979.3 |
| 20260505063506 | 40 | 328 | 11.3 | 14.8 | 0.00 | 0.00 | 0.00 | 45 | 980.0 |
| 20260505062506 | 39 | 266 | 4.3 | 4.3 | 0.00 | 0.00 | 0.00 | 46 | 980.0 |
| 20260505062005 | 39 | 266 | 4.3 | 4.3 | 0.00 | 0.00 | 0.00 | 46 | 980.0 |
| 20260505061005 | 39 | 259 | 7.0 | 7.0 | 0.00 | 0.00 | 0.00 | 47 | 979.7 |
| 20260505060504 | 40 | 335 | 13.9 | 13.9 | 0.00 | 0.00 | 0.00 | 44 | 979.7 |
| 20260505060003 | 39 | 333 | 13.0 | 13.0 | 0.00 | 0.00 | 0.00 | 45 | 979.2 |
| 20260505055509 | 39 | 337 | 14.8 | 17.4 | 0.00 | 0.00 | 0.00 | 43 | 980.7 |
| 20260505055008 | 38 | 304 | 12.2 | 14.8 | 0.00 | 0.00 | 0.00 | 44 | 979.7 |
| 20260505054508 | 39 | 333 | 13.9 | 16.5 | 0.00 | 0.00 | 0.00 | 44 | 980.1 |
| 20260505054007 | 38 | 305 | 12.2 | 14.8 | 0.00 | 0.00 | 0.00 | 45 | 980.3 |
| 20260505053506 | 38 | 322 | 13.0 | 15.6 | 0.00 | 0.00 | 0.00 | 45 | 979.8 |
| 20260505053006 | 39 | 333 | 12.2 | 14.8 | 0.00 | 0.00 | 0.00 | 46 | 980.2 |
| 20260505052505 | 38 | 332 | 12.2 | 17.4 | 0.00 | 0.00 | 0.00 | 46 | 979.6 |
| 20260505052005 | 38 | 268 | 12.2 | 15.6 | 0.00 | 0.00 | 0.00 | 47 | 979.3 |
| 20260505051504 | 38 | 316 | 8.7 | 16.5 | 0.00 | 0.00 | 0.00 | 47 | 979.8 |
| 20260505051004 | 38 | 292 | 7.8 | 12.2 | 0.00 | 0.00 | 0.00 | 48 | 979.4 |
| 20260505050521 | 38 | 291 | 12.2 | 18.2 | 0.00 | 0.00 | 0.00 | 46 | 980.0 |
| 20260505041504 | 41 | 271 | 7.8 | 9.6 | 0.00 | 0.00 | 0.00 | 48 | 980.9 |
| 20260505041003 | 41 | 295 | 14.8 | 14.8 | 0.00 | 0.00 | 0.00 | 47 | 981.5 |
| 20260505040503 | 41 | 295 | 14.8 | 14.8 | 0.00 | 0.00 | 0.00 | 47 | 981.5 |
| 20260505040007 | 40 | 301 | 9.6 | 9.6 | 0.00 | 0.00 | 0.00 | 46 | 980.3 |
| 20260505035507 | 40 | 310 | 9.6 | 9.6 | 0.00 | 0.00 | 0.00 | 46 | 980.3 |
| 20260505035006 | 41 | 306 | 7.8 | 7.8 | 0.00 | 0.00 | 0.00 | 48 | 981.1 |
| 20260505034505 | 41 | 306 | 7.8 | 7.8 | 0.00 | 0.00 | 0.00 | 48 | 981.1 |
| 20260505034005 | 41 | 306 | 7.8 | 7.8 | 0.00 | 0.00 | 0.00 | 48 | 981.1 |
| 20260505033504 | 40 | 253 | 4.3 | 7.8 | 0.00 | 0.00 | 0.00 | 51 | 980.4 |
| 20260505032009 | 41 | 30 | 7.0 | 14.8 | 0.00 | 0.00 | 0.00 | 49 | 980.5 |
| 20260505031508 | 41 | 6 | 10.4 | 13.9 | 0.00 | 0.00 | 0.00 | 47 | 980.3 |
| 20260505031008 | 41 | 27 | 7.8 | 10.4 | 0.00 | 0.00 | 0.00 | 49 | 980.7 |
| 20260505030507 | 41 | 72 | 7.8 | 13.0 | 0.00 | 0.00 | 0.00 | 50 | 980.9 |
| 20260505030005 | 41 | 108 | 4.3 | 8.7 | 0.00 | 0.00 | 0.00 | 54 | 980.0 |
| 20260505025505 | 41 | 131 | 4.3 | 8.7 | 0.00 | 0.00 | 0.00 | 51 | 980.2 |
| 20260505024504 | 42 | 9 | 8.7 | 14.8 | 0.00 | 0.00 | 0.00 | 47 | 979.8 |
| 20260505024003 | 41 | 1 | 9.6 | 13.0 | 0.00 | 0.00 | 0.00 | 47 | 979.8 |
| 20260505023509 | 42 | 27 | 10.4 | 14.8 | 0.00 | 0.00 | 0.00 | 48 | 979.6 |
| 20260505023008 | 41 | 358 | 8.7 | 14.8 | 0.00 | 0.00 | 0.00 | 50 | 979.4 |
| 20260505022508 | 42 | 102 | 7.8 | 13.9 | 0.00 | 0.00 | 0.00 | 51 | 979.3 |
| 20260505022007 | 41 | 49 | 8.7 | 11.3 | 0.00 | 0.00 | 0.00 | 48 | 979.4 |
| 20260505021507 | 41 | 345 | 8.7 | 10.4 | 0.00 | 0.00 | 0.00 | 47 | 979.4 |
| 20260505021006 | 41 | 14 | 10.4 | 10.4 | 0.00 | 0.00 | 0.00 | 48 | 980.4 |
| 20260505020504 | 41 | 10 | 13.0 | 16.5 | 0.00 | 0.00 | 0.00 | 45 | 980.2 |
| 20260505020004 | 40 | 4 | 19.1 | 22.6 | 0.00 | 0.00 | 0.00 | 46 | 979.9 |
| 20260505015503 | 41 | 32 | 4.3 | 5.2 | 0.00 | 0.00 | 0.00 | 49 | 980.3 |
| 20260505015008 | 41 | 332 | 5.2 | 6.1 | 0.00 | 0.00 | 0.00 | 50 | 979.8 |
| 20260505014508 | 40 | 347 | 3.5 | 5.2 | 0.00 | 0.00 | 0.00 | 51 | 980.3 |
| 20260505014007 | 40 | 358 | 4.3 | 6.1 | 0.00 | 0.00 | 0.00 | 52 | 980.8 |
| 20260505013507 | 40 | 33 | 4.3 | 6.1 | 0.00 | 0.00 | 0.00 | 50 | 979.8 |
| 20260505013006 | 40 | 1 | 7.8 | 7.8 | 0.00 | 0.00 | 0.00 | 49 | 980.1 |
| 20260505012505 | 40 | 4 | 7.8 | 9.6 | 0.00 | 0.00 | 0.00 | 49 | 979.7 |
| 20260505012005 | 41 | 7 | 7.8 | 7.8 | 0.00 | 0.00 | 0.00 | 49 | 979.7 |
| 20260505011504 | 40 | 9 | 7.8 | 8.7 | 0.00 | 0.00 | 0.00 | 48 | 979.8 |
| 20260505011004 | 40 | 30 | 6.1 | 7.0 | 0.00 | 0.00 | 0.00 | 49 | 980.1 |
| 20260505010509 | 40 | 359 | 6.1 | 6.1 | 0.00 | 0.00 | 0.00 | 49 | 979.9 |
| 20260505010009 | 40 | 359 | 6.1 | 6.1 | 0.00 | 0.00 | 0.00 | 50 | 980.0 |
| 20260505005507 | 40 | 15 | 7.0 | 7.8 | 0.00 | 0.00 | 0.00 | 52 | 979.5 |
| 20260505005007 | 40 | 241 | 3.5 | 5.2 | 0.00 | 0.00 | 0.00 | 59 | 979.9 |
| 20260505004006 | 40 | 266 | 3.5 | 8.7 | 0.00 | 0.00 | 0.00 | 57 | 980.4 |
| 20260505003506 | 40 | 354 | 1.7 | 4.3 | 0.00 | 0.00 | 0.00 | 59 | 980.3 |